When you browse on this site, cookies collect data to enhance your experience and personalize the content and advertising you see.
Visit our Privacy Policy to learn more. By continuing to use the site, you agree to this use of cookies and data.
  • en Suisse
  • Liste des pays
  • À 7 jours
  • Température de l'eau
  • Carte satellitaire
  • Carte météo
  • Widgets météo
  • user-avatar
    Se connecter

    Météo par heure à Klagenfurt

    Ce jour, 23 Mars, Samedi

    Heure Température Précipitation Vent Pression Humidité
    00:00 +4°C° 0 mm 1 m/s 696 mmHg 70%
    01:00 +4°C° 0 mm 1 m/s 696 mmHg 71%
    02:00 +4°C° 0 mm 1 m/s 696 mmHg 71%
    03:00 +4°C° 0 mm 1 m/s 696 mmHg 71%
    04:00 +3°C° 0 mm 1 m/s 696 mmHg 72%
    05:00 +4°C° 0 mm 1 m/s 696 mmHg 71%
    06:00 +4°C° 0 mm 1 m/s 696 mmHg 70%
    07:00 +4°C° 0 mm 1 m/s 696 mmHg 69%
    08:00 +8°C° 0 mm 1 m/s 696 mmHg 62%
    09:00 +11°C° 0 mm 1 m/s 697 mmHg 55%
    10:00 +14°C° 0 mm 1 m/s 697 mmHg 48%
    11:00 +15°C° 0 mm 1 m/s 697 mmHg 46%
    12:00 +16°C° 0 mm 1 m/s 697 mmHg 44%
    13:00 +18°C° 0 mm 1 m/s 697 mmHg 42%
    14:00 +18°C° 0 mm 1 m/s 697 mmHg 43%
    15:00 +16°C° 0 mm 1 m/s 696 mmHg 45%
    16:00 +16°C° 0 mm 1 m/s 696 mmHg 46%
    17:00 +14°C° 0 mm 1 m/s 696 mmHg 55%
    18:00 +11°C° 0 mm 1 m/s 695 mmHg 65%
    19:00 +8°C° 0 mm 0 m/s 695 mmHg 74%
    20:00 +7°C° 0 mm 0 m/s 695 mmHg 76%
    21:00 +7°C° 0 mm 0 m/s 695 mmHg 77%
    22:00 +6°C° 0 mm 0 m/s 695 mmHg 79%
    23:00 +6°C° 0 mm 0 m/s 695 mmHg 80%

    Demain, 24 Mars, Dimanche

    Heure Température Précipitation Vent Pression Humidité
    00:00 +6°C° 0 mm 1 m/s 695 mmHg 81%
    01:00 +6°C° 0 mm 1 m/s 695 mmHg 82%
    02:00 +6°C° 0 mm 1 m/s 695 mmHg 82%
    03:00 +6°C° 0 mm 1 m/s 694 mmHg 83%
    04:00 +5°C° 0 mm 1 m/s 694 mmHg 83%
    05:00 +6°C° 0 mm 1 m/s 694 mmHg 82%
    06:00 +6°C° 0 mm 1 m/s 694 mmHg 81%
    07:00 +6°C° 0 mm 1 m/s 694 mmHg 80%
    08:00 +8°C° 0 mm 0 m/s 694 mmHg 71%
    09:00 +11°C° 0 mm 0 m/s 695 mmHg 61%
    10:00 +14°C° 0 mm 0 m/s 695 mmHg 52%
    11:00 +15°C° 0 mm 0 m/s 695 mmHg 48%
    12:00 +18°C° 0 mm 1 m/s 695 mmHg 44%
    13:00 +19°C° 0 mm 1 m/s 694 mmHg 41%
    14:00 +19°C° 0 mm 1 m/s 694 mmHg 41%
    15:00 +18°C° 0 mm 1 m/s 693 mmHg 42%
    16:00 +18°C° 0 mm 1 m/s 693 mmHg 43%
    17:00 +15°C° 0 mm 1 m/s 692 mmHg 51%
    18:00 +13°C° 0 mm 1 m/s 692 mmHg 59%
    19:00 +10°C° 0 mm 1 m/s 691 mmHg 67%
    20:00 +10°C° 0 mm 1 m/s 691 mmHg 70%
    21:00 +9°C° 0 mm 1 m/s 691 mmHg 73%
    22:00 +9°C° 0 mm 1 m/s 692 mmHg 76%
    23:00 +8°C° 0 mm 1 m/s 691 mmHg 77%

    Après-demain, 25 Mars, Lundi

    Heure Température Précipitation Vent Pression Humidité
    00:00 +8°C° 0 mm 1 m/s 691 mmHg 79%
    01:00 +8°C° 0 mm 1 m/s 691 mmHg 80%
    02:00 +8°C° 0.1 mm 1 m/s 691 mmHg 81%
    03:00 +8°C° 0.1 mm 1 m/s 691 mmHg 81%
    04:00 +8°C° 0.1 mm 1 m/s 690 mmHg 82%
    05:00 +8°C° 0.1 mm 1 m/s 690 mmHg 83%
    06:00 +8°C° 0.1 mm 1 m/s 690 mmHg 83%
    07:00 +8°C° 0.1 mm 1 m/s 690 mmHg 84%
    08:00 +9°C° 0.5 mm 1 m/s 690 mmHg 82%
    09:00 +9°C° 0.5 mm 1 m/s 690 mmHg 81%
    10:00 +9°C° 0.5 mm 0 m/s 690 mmHg 79%
    11:00 +9°C° 0.5 mm 0 m/s 690 mmHg 78%
    12:00 +11°C° 0.5 mm 1 m/s 689 mmHg 76%
    13:00 +11°C° 0.5 mm 1 m/s 689 mmHg 75%
    14:00 +11°C° 0.2 mm 1 m/s 689 mmHg 74%
    15:00 +11°C° 0.2 mm 1 m/s 689 mmHg 73%
    16:00 +11°C° 0.2 mm 1 m/s 688 mmHg 72%
    17:00 +10°C° 1.3 mm 1 m/s 689 mmHg 74%
    18:00 +9°C° 1.3 mm 1 m/s 689 mmHg 76%
    19:00 +7°C° 1.3 mm 2 m/s 689 mmHg 78%
    20:00 +6°C° 0.4 mm 2 m/s 690 mmHg 75%
    21:00 +4°C° 0.4 mm 3 m/s 691 mmHg 72%
    22:00 +3°C° 0.4 mm 3 m/s 692 mmHg 69%
    23:00 +2°C° 0 mm 3 m/s 692 mmHg 68%

    26 Mars, Mardi

    Heure Température Précipitation Vent Pression Humidité
    00:00 +2°C° 0 mm 2 m/s 692 mmHg 67%
    01:00 +1°C° 0 mm 2 m/s 693 mmHg 66%
    02:00 -1°C° 0 mm 2 m/s 693 mmHg 66%
    03:00 -1°C° 0 mm 2 m/s 693 mmHg 67%
    04:00 -2°C° 0 mm 2 m/s 693 mmHg 67%
    05:00 -1°C° 0 mm 2 m/s 694 mmHg 66%
    06:00 -1°C° 0 mm 2 m/s 695 mmHg 64%
    07:00 +1°C° 0 mm 2 m/s 695 mmHg 63%
    08:00 +2°C° 0 mm 2 m/s 696 mmHg 54%
    09:00 +3°C° 0 mm 3 m/s 696 mmHg 45%
    10:00 +4°C° 0 mm 4 m/s 697 mmHg 37%
    11:00 +5°C° 0 mm 4 m/s 697 mmHg 34%
    12:00 +6°C° 0 mm 4 m/s 697 mmHg 32%
    13:00 +7°C° 0 mm 4 m/s 696 mmHg 29%
    14:00 +7°C° 0 mm 4 m/s 696 mmHg 30%
    15:00 +8°C° 0 mm 3 m/s 696 mmHg 30%
    16:00 +8°C° 0 mm 3 m/s 696 mmHg 31%
    17:00 +5°C° 0 mm 3 m/s 696 mmHg 38%
    18:00 +4°C° 0 mm 2 m/s 696 mmHg 46%
    19:00 +3°C° 0 mm 1 m/s 696 mmHg 53%
    20:00 +2°C° 0 mm 1 m/s 697 mmHg 55%
    21:00 +2°C° 0 mm 1 m/s 697 mmHg 56%
    22:00 +1°C° 0 mm 1 m/s 697 mmHg 58%
    23:00 +1°C° 0 mm 1 m/s 697 mmHg 59%

    27 Mars, Mercredi

    Heure Température Précipitation Vent Pression Humidité
    00:00 +1°C° 0 mm 1 m/s 697 mmHg 61%
    01:00 0°C° 0 mm 1 m/s 697 mmHg 62%
    02:00 0°C° 0 mm 1 m/s 697 mmHg 63%
    03:00 0°C° 0 mm 1 m/s 697 mmHg 63%
    04:00 0°C° 0 mm 1 m/s 697 mmHg 63%
    05:00 +1°C° 0 mm 1 m/s 697 mmHg 61%
    06:00 +1°C° 0 mm 1 m/s 697 mmHg 59%
    07:00 +2°C° 0 mm 1 m/s 697 mmHg 56%
    08:00 +4°C° 0 mm 1 m/s 698 mmHg 47%
    09:00 +7°C° 0 mm 1 m/s 698 mmHg 38%
    10:00 +9°C° 0 mm 1 m/s 699 mmHg 29%
    11:00 +11°C° 0 mm 1 m/s 699 mmHg 29%
    12:00 +12°C° 0 mm 1 m/s 698 mmHg 29%
    13:00 +13°C° 0 mm 1 m/s 698 mmHg 28%
    14:00 +12°C° 0 mm 1 m/s 698 mmHg 30%
    15:00 +11°C° 0 mm 1 m/s 697 mmHg 32%
    16:00 +11°C° 0 mm 1 m/s 697 mmHg 33%
    17:00 +9°C° 0 mm 1 m/s 697 mmHg 42%
    18:00 +7°C° 0 mm 1 m/s 697 mmHg 50%
    19:00 +5°C° 0 mm 1 m/s 697 mmHg 59%
    20:00 +3°C° 0 mm 0 m/s 697 mmHg 62%
    21:00 +3°C° 0 mm 0 m/s 697 mmHg 66%
    22:00 +2°C° 0 mm 0 m/s 697 mmHg 69%
    23:00 +2°C° 0 mm 0 m/s 697 mmHg 71%

    28 Mars, Jeudi

    Heure Température Précipitation Vent Pression Humidité
    00:00 +1°C° 0 mm 0 m/s 697 mmHg 73%
    01:00 +1°C° 0 mm 0 m/s 697 mmHg 74%
    02:00 +2°C° 0 mm 1 m/s 697 mmHg 75%
    03:00 +2°C° 0 mm 1 m/s 697 mmHg 76%
    04:00 +1°C° 0 mm 1 m/s 697 mmHg 77%
    05:00 +2°C° 0 mm 1 m/s 697 mmHg 75%
    06:00 +2°C° 0 mm 1 m/s 697 mmHg 73%
    07:00 +3°C° 0 mm 1 m/s 697 mmHg 71%
    08:00 +5°C° 0 mm 1 m/s 698 mmHg 63%
    09:00 +8°C° 0 mm 1 m/s 698 mmHg 54%
    10:00 +10°C° 0 mm 1 m/s 699 mmHg 46%
    11:00 +11°C° 0 mm 1 m/s 699 mmHg 46%
    12:00 +11°C° 0 mm 1 m/s 699 mmHg 46%
    13:00 +12°C° 0 mm 1 m/s 699 mmHg 46%
    14:00 +11°C° 0.2 mm 1 m/s 699 mmHg 49%
    15:00 +11°C° 0.2 mm 1 m/s 698 mmHg 52%
    16:00 +10°C° 0.2 mm 2 m/s 698 mmHg 55%
    17:00 +9°C° 0.1 mm 1 m/s 698 mmHg 64%
    18:00 +7°C° 0.1 mm 1 m/s 698 mmHg 74%
    19:00 +6°C° 0.1 mm 1 m/s 698 mmHg 83%
    20:00 +5°C° 0.1 mm 1 m/s 698 mmHg 85%
    21:00 +5°C° 0.1 mm 1 m/s 699 mmHg 87%
    22:00 +4°C° 0.1 mm 0 m/s 699 mmHg 89%
    23:00 +4°C° 0 mm 1 m/s 699 mmHg 91%
    Voir plus